Flag for United Kingdom Weather past 2 weeks in Liverpool, England, United Kingdom

Now
45 °F

Clear.


Feels Like: 38 °F
Forecast: N/A
Wind: 15 mph from Northwest

Location: Liverpool Airport

Current Time: Mar 26, 2015 at 10:47:41 PM

Latest Report: Mar 26, 2015 at 9:50 PM


Visibility: 10 mi

Pressure: 29.92 "Hg

Humidity: 71%

Dew point: 36 °F

Location of LiverpoolLocation

Historic Weather in Liverpool — Graph

°F

Liverpool temperature yesterday

Maximum temperature yesterday: 48 °F (at 12:50 PM)
Minimum temperature yesterday: 30 °F (at 5:50 AM)
Average temperature yesterday: 43 °F

Past Weeks' High & Low Weather Summary

 TemperatureHumidityPressure
High55 °F (Mar 12, 1:20 PM)100% (Mar 11, 10:20 PM)30.60 "Hg (Mar 11, 10:20 PM)
Low30 °F (Mar 19, 6:20 AM)50% (Mar 21, 3:50 PM)29.42 "Hg (Mar 26, 5:20 AM)
Average43 °F83%30.22 "Hg
* Reported Mar 11 9:20 PM — Mar 26 9:50 PM, Liverpool, Weather by CustomWeather, © 2015

Note: Actual official high and low records may vary slightly from our data, if they occured in-between our weather recording intervals... More about our weather records

Advertising

Liverpool weather history for previous 24 hours

 ConditionsComfort  
Time TempWeatherWind HumidityBarometerVisibility
9:50 PM
Thu, Mar 26
45 °FClear.15 mph71%29.92 "Hg10 mi
9:20 PM45 °FClear.18 mph71%29.92 "Hg10 mi
8:50 PM45 °FClear.16 mph76%29.89 "Hg10 mi
8:20 PM45 °FClear.18 mph76%29.89 "Hg10 mi
7:50 PM45 °FPassing clouds.16 mph76%29.86 "HgN/A
7:20 PM45 °FPassing clouds.12 mph81%29.86 "HgN/A
6:50 PM46 °FScattered showers. Passing clouds.17 mph76%29.83 "HgN/A
6:20 PM46 °FSprinkles. Scattered clouds.17 mph76%29.83 "HgN/A
5:50 PM46 °FPassing clouds.21 mph71%29.80 "HgN/A
5:20 PM46 °FPassing clouds.23 mph76%29.77 "HgN/A
4:50 PM46 °FScattered showers. Passing clouds.24 mph76%29.77 "HgN/A
4:20 PM46 °FScattered showers. Scattered clouds.22 mph82%29.74 "HgN/A
3:50 PM46 °FScattered clouds.25 mph76%29.71 "HgN/A
3:20 PM48 °FScattered clouds.25 mph82%29.71 "HgN/A
2:50 PM48 °FPassing clouds.28 mph71%29.68 "HgN/A
2:20 PM50 °FPassing clouds.29 mph67%29.68 "HgN/A
1:50 PM50 °FScattered clouds.30 mph67%29.65 "HgN/A
1:20 PM48 °FScattered clouds.29 mph71%29.65 "HgN/A
12:50 PM50 °FScattered clouds.25 mph71%29.62 "HgN/A
12:20 PM48 °FPassing clouds.24 mph71%29.62 "HgN/A
11:50 AM50 °FPartly sunny.28 mph71%29.59 "HgN/A
11:20 AM48 °FPartly sunny.26 mph82%29.56 "HgN/A
10:50 AM48 °FPartly sunny.26 mph82%29.56 "HgN/A
10:20 AM48 °FScattered showers. Broken clouds.28 mph82%29.53 "HgN/A
9:50 AM48 °FScattered showers. Broken clouds.24 mph82%29.50 "HgN/A
9:20 AM48 °FLight rain. Broken clouds.25 mph87%29.50 "HgN/A
8:50 AM46 °FLight rain. Partly sunny.25 mph93%29.47 "HgN/A
8:20 AM46 °FLight rain. Partly sunny.20 mph93%29.45 "HgN/A
7:50 AM46 °FLight rain. Partly sunny.18 mph93%29.45 "HgN/A
7:20 AM43 °FScattered clouds.8 mph93%29.45 "HgN/A
6:50 AM41 °FLight rain. Partly sunny.13 mph93%29.42 "HgN/A
6:20 AM39 °FRain. Partly sunny.13 mph100%29.42 "Hg4 mi
5:50 AM39 °FLight rain. Passing clouds.15 mph93%29.42 "HgN/A
5:20 AM39 °FRain showers. Partly cloudy.15 mph93%29.42 "Hg6 mi
4:50 AM39 °FRain showers. Partly cloudy.17 mph93%29.45 "Hg6 mi
4:20 AM39 °FRain showers. Passing clouds.17 mph93%29.45 "Hg6 mi
3:50 AM39 °FRain showers. Passing clouds.20 mph93%29.45 "Hg6 mi
3:20 AM39 °FRain showers. Passing clouds.18 mph93%29.47 "Hg6 mi
2:50 AM39 °FRain showers. Passing clouds.17 mph93%29.50 "Hg6 mi
2:20 AM39 °FRain showers. Passing clouds.17 mph93%29.53 "Hg6 mi
1:50 AM39 °FRain showers. Passing clouds.13 mph93%29.56 "Hg6 mi
1:20 AM37 °FRain showers. Passing clouds.16 mph93%29.59 "Hg6 mi
12:50 AM37 °FRain showers. Passing clouds.16 mph93%29.59 "Hg6 mi
12:20 AM39 °FRain showers. Passing clouds.21 mph87%29.62 "Hg6 mi
11:50 PM
Wed, Mar 25
43 °FPassing clouds.21 mph76%29.65 "HgN/A
11:20 PM45 °FPassing clouds.16 mph71%29.65 "HgN/A
10:50 PM45 °FClear.16 mph71%29.68 "Hg10 mi
10:20 PM45 °FClear.13 mph71%29.68 "Hg10 mi
Weather by CustomWeather, © 2015

See weather overviewHow to use our weather pages